Flag for Germany Weather past 2 weeks in Wolfsburg, Lower Saxony, Germany

Now
68 °F

Passing clouds.


Feels Like: 68 °F
Forecast: 49 / 68 °F
Wind: 3 mph from North

Location: Braunschweig


UV Index: 3 (Moderate)

Visibility: N/A


Pressure: 30.09 "Hg

Humidity: 56%

Dew point: 52 °F

Location of WolfsburgLocation

Historic Weather in Wolfsburg

°F

Wolfsburg temperature yesterday

Maximum temperature yesterday: 66 °F (at 2:50 PM)
Minimum temperature yesterday: 46 °F (at 6:20 AM)
Average temperature yesterday: 60 °F

Past Weeks' High & Low Weather Summary

 TemperatureHumidityPressure
High70 °F (Apr 23, 3:50 PM)100% (Apr 9, 6:50 AM)30.48 "Hg (Apr 9, 6:50 AM)
Low32 °F (Apr 16, 6:50 AM)33% (Apr 17, 2:50 PM)29.68 "Hg (Apr 21, 4:50 PM)
Average51 °F79%30.06 "Hg
* Reported Apr 8 4:20 PM — Apr 23 4:50 PM, Wolfsburg, Weather by CustomWeather, © 2014

Note: Actual official high and low records may vary slightly from our data, if they occured in-between our weather recording intervals... More about our weather records

Advertising

Historic Weather Conditions — Data for Previous 24 hours

 ConditionsComfort  
Time TempWeatherWind HumidityBarometerVisibility
4:50 PM
Apr 23
68 °FPassing clouds.3 mph56%30.09 "HgN/A
4:20 PM70 °FPassing clouds.6 mph57%30.09 "HgN/A
3:50 PM70 °FPassing clouds.5 mph46%30.09 "HgN/A
3:20 PM68 °FPassing clouds.6 mph53%30.09 "HgN/A
2:50 PM68 °FPassing clouds.5 mph56%30.09 "HgN/A
2:20 PM68 °FPassing clouds.6 mph53%30.09 "HgN/A
1:50 PM68 °FScattered clouds.5 mph56%30.12 "HgN/A
1:20 PM66 °FPassing clouds.6 mph64%30.12 "HgN/A
12:50 PM66 °FPassing clouds.5 mph64%30.09 "HgN/A
12:20 PM64 °FPassing clouds.5 mph64%30.12 "HgN/A
11:50 AM64 °FPassing clouds.5 mph64%30.12 "HgN/A
11:20 AM63 °FSunny.3 mph77%30.12 "Hg10 mi
10:50 AM63 °FSunny.3 mph77%30.12 "Hg10 mi
10:20 AM61 °FClear.3 mph88%30.09 "Hg6 mi
9:50 AM57 °FClear.6 mph94%30.09 "Hg5 mi
9:20 AM55 °FClear.7 mph100%30.09 "Hg4 mi
8:50 AM55 °FClear.6 mph100%30.09 "Hg4 mi
8:20 AM52 °FClear.5 mph100%30.09 "Hg4 mi
7:50 AM48 °FClear.No wind100%30.09 "Hg3 mi
7:20 AM46 °FLight fog.No wind100%30.09 "Hg3 mi
6:50 AM45 °FFog.3 mph100%30.07 "Hg2 mi
6:20 AM45 °FFog.No wind100%30.07 "Hg2 mi
9:20 PM
Apr 22
57 °FSunny.3 mph82%29.95 "Hg10 mi
8:50 PM59 °FSunny.3 mph77%29.95 "Hg10 mi
8:20 PM59 °FPassing clouds.5 mph77%29.95 "HgN/A
7:50 PM63 °FPassing clouds.8 mph64%29.92 "HgN/A
7:20 PM64 °FPassing clouds.8 mph60%29.92 "HgN/A
6:50 PM64 °FPassing clouds.9 mph56%29.92 "HgN/A
6:20 PM66 °FSunny.8 mph52%29.89 "Hg10 mi
5:50 PM64 °FPassing clouds.8 mph56%29.89 "HgN/A
5:20 PM64 °FPassing clouds.7 mph64%29.89 "HgN/A
Weather by CustomWeather, © 2014

See weather overview